{"data":{"norad_id":59074,"intl_designator":"2024-041A","name":"STARLINK-31265","alt_names":[],"object_type":"PAYLOAD","status":"ACTIVE","operator":null,"country":"US","launch_date":"2024-02-29","launch_site_code":"AFETR","launch_vehicle":null,"mission":null,"orbit_class":"UNKNOWN","rcs_meters":null,"size_class":null,"mass_kg":null,"dimensions":null,"purposes":["comms"],"wikipedia_slug":null,"has_3d_model":false,"image_url":null,"decayed_at":null,"tle_current":{"epoch":"2026-05-24T13:15:32.945760Z","epoch_age_seconds":113477,"freshness":"FRESH","line1":"1 59074U 24041A   26144.55246465  .00002983  00000+0  11786-3 0  9997","line2":"2 59074  42.9995 242.2791 0001434 271.9114  88.1573 15.27584572125870","mean_motion":15.27584572,"eccentricity":0.0001434,"inclination_deg":42.9995,"raan_deg":242.2791,"arg_perigee_deg":271.9114,"mean_anomaly_deg":88.1573,"bstar":0.00011786,"rev_number":12587,"period_min":94.266466577014,"perigee_km":482.05151373803,"apogee_km":484.01929798403,"semimajor_km":6861.172405861,"source":"CELESTRAK","updated_at":"2026-05-25T13:38:18.827412Z"}}}